Hutchinson, MN

2:30 AM CDT on August 24, 2016 (GMT -0500)
Hutchinson Municipal-Butler

Weather History for KHCD - November, 2014

Change the Weather History Date:

Monday, November 3, 2014

  Actual Average Record
Temperature  
Mean Temperature 47 °F -  
Max Temperature 53 °F 47 °F 75 °F (1978)
Min Temperature 41 °F 30 °F 7 °F (1991)
Degree Days  
Heating Degree Days 18    
Moisture  
Dew Point 40 °F    
Average Humidity 77    
Maximum Humidity 88    
Minimum Humidity 67    
Precipitation  
Precipitation 0.00 in - - ()
Sea Level Pressure  
Sea Level Pressure 29.81 in    
Wind  
Wind Speed 6 mph (SSW)    
Max Wind Speed 18 mph    
Max Gust Speed 25 mph    
Visibility 10 miles    
Events      
Averages and records for this station are not official NWS values.
T = Trace of Precipitation, MM = Missing Value Source: NWS Daily Summary

Daily Weather History Graph

Daily Weather History Graph

Search for Another Location

Airport or City:

Trip Planner

Search our weather history database for the weather conditions in past years. The results will help you decide how hot, cold, wet, or windy it might be!

Date:

Astronomy

Nov. 03, 2014 Rise Set
Actual Time 6:58 AM CST 5:03 PM CST
Civil Twilight 6:27 AM CST 5:33 PM CST
Nautical Twilight 5:53 AM CST 6:08 PM CST
Astronomical Twilight 5:18 AM CST 6:42 PM CST
Moon 3:21 PM CST (11/3) 2:59 AM CST (11/3)
Length of Visible Light 11h 06m
Length of Day
10h 04m
Waxing Gibbous, 87% of the Moon is Illuminated
Nov 3
Waxing Gibbous
Nov 6
Full
Nov 14
Last Quarter
Nov 22
New
Nov 29
First Quarter

Hourly Weather History & Observations

Time (CST) Temp. Windchill Dew Point Humidity Pressure Visibility Wind Dir Wind Speed Gust Speed Precip Events Conditions
12:12 AM 45.1 °F 41.4 °F 34.9 °F 67% 29.84 in 10.0 mi SE 6.9 mph - N/A   Clear
12:32 AM 45.0 °F 41.8 °F 35.1 °F 68% 29.84 in 10.0 mi SE 5.8 mph - N/A   Clear
12:53 AM 44.6 °F 42.2 °F 35.1 °F 69% 29.83 in 10.0 mi SE 4.6 mph - N/A   Clear
1:13 AM 44.6 °F 40.7 °F 35.2 °F 70% 29.82 in 10.0 mi SE 6.9 mph - N/A   Clear
1:33 AM 43.9 °F 39.9 °F 35.6 °F 73% 29.81 in 10.0 mi SE 6.9 mph - N/A   Clear
1:52 AM 44.6 °F 42.2 °F 36.0 °F 72% 29.82 in 10.0 mi SE 4.6 mph - N/A   Clear
2:12 AM 44.1 °F - 36.0 °F 73% 29.82 in 10.0 mi Calm Calm - N/A   Clear
2:33 AM 43.9 °F 39.9 °F 36.1 °F 74% 29.81 in 10.0 mi SE 6.9 mph - N/A   Clear
2:52 AM 43.3 °F 39.9 °F 36.1 °F 76% 29.80 in 10.0 mi SE 5.8 mph - N/A   Clear
3:13 AM 42.4 °F - 36.1 °F 78% 29.80 in 10.0 mi Calm Calm - N/A   Clear
3:32 AM 43.3 °F 41.7 °F 36.7 °F 77% 29.80 in 10.0 mi SE 3.5 mph - N/A   Clear
3:52 AM 43.7 °F 40.3 °F 37.4 °F 78% 29.80 in 10.0 mi SE 5.8 mph - N/A   Clear
4:13 AM 43.5 °F 40.1 °F 37.4 °F 79% 29.79 in 10.0 mi SE 5.8 mph - N/A   Clear
4:33 AM 43.7 °F 40.3 °F 37.4 °F 78% 29.80 in 10.0 mi SE 5.8 mph - N/A   Clear
4:52 AM 44.6 °F 40.2 °F 38.1 °F 78% 29.79 in 10.0 mi SE 8.1 mph - N/A   Clear
5:13 AM 44.6 °F 43.1 °F 38.3 °F 79% 29.79 in 10.0 mi SE 3.5 mph - N/A   Clear
5:32 AM 44.2 °F 41.8 °F 38.5 °F 80% 29.79 in 10.0 mi SSE 4.6 mph - N/A   Clear
5:53 AM 44.2 °F 42.7 °F 38.8 °F 81% 29.79 in 10.0 mi SE 3.5 mph - N/A   Clear
6:12 AM 43.9 °F 42.3 °F 39.2 °F 84% 29.79 in 10.0 mi SE 3.5 mph - N/A   Clear
6:32 AM 43.7 °F 41.1 °F 39.0 °F 84% 29.80 in 10.0 mi SSE 4.6 mph - N/A   Clear
6:53 AM 44.2 °F 41.8 °F 39.4 °F 83% 29.80 in 10.0 mi SSE 4.6 mph - N/A   Clear
7:12 AM 44.8 °F 41.0 °F 39.7 °F 82% 29.80 in 10.0 mi SSE 6.9 mph - N/A   Clear
7:33 AM 45.5 °F 43.2 °F 40.3 °F 82% 29.79 in 10.0 mi SSE 4.6 mph - N/A   Clear
7:52 AM 45.7 °F 44.4 °F 40.3 °F 81% 29.79 in 10.0 mi SSE 3.5 mph - N/A   Scattered Clouds
8:13 AM 45.9 °F - 40.5 °F 81% 29.79 in 10.0 mi Calm Calm - N/A   Mostly Cloudy
8:33 AM 46.4 °F 43.5 °F 41.0 °F 81% 29.82 in 10.0 mi South 5.8 mph - N/A   Overcast
8:52 AM 47.1 °F - 41.4 °F 80% 29.82 in 10.0 mi South 8.1 mph - N/A   Mostly Cloudy
9:12 AM 47.3 °F - 41.5 °F 80% 29.81 in 10.0 mi South 3.5 mph - N/A   Mostly Cloudy
9:32 AM 47.5 °F - 41.9 °F 81% 29.80 in 10.0 mi South 4.6 mph - N/A   Overcast
9:52 AM 48.2 °F - 42.6 °F 81% 29.80 in 10.0 mi South 3.5 mph - N/A   Overcast
10:12 AM 48.2 °F - 42.4 °F 80% 29.79 in 10.0 mi SSE 3.5 mph - N/A   Overcast
10:32 AM 48.7 °F - 42.8 °F 80% 29.79 in 10.0 mi Calm Calm - N/A   Overcast
10:53 AM 49.1 °F - 43.2 °F 80% 29.80 in 10.0 mi South 6.9 mph - N/A   Overcast
11:13 AM 50.0 °F - 43.7 °F 79% 29.80 in 10.0 mi South 6.9 mph - N/A   Overcast
11:32 AM 50.9 °F - 43.9 °F 77% 29.80 in 10.0 mi South 6.9 mph - N/A   Overcast
11:53 AM 52.2 °F - 44.4 °F 75% 29.79 in 10.0 mi South 8.1 mph - N/A   Overcast
12:12 PM 52.2 °F - 44.1 °F 74% 29.79 in 10.0 mi SSW 6.9 mph - N/A   Overcast
12:33 PM 52.9 °F - 43.9 °F 71% 29.78 in 10.0 mi WSW 8.1 mph - N/A   Scattered Clouds
12:53 PM 53.6 °F - 44.1 °F 70% 29.77 in 10.0 mi WSW 4.6 mph - N/A   Scattered Clouds
1:13 PM 52.7 °F - 43.7 °F 71% 29.75 in 10.0 mi West 4.6 mph - N/A   Mostly Cloudy
1:33 PM 52.3 °F - 43.7 °F 72% 29.75 in 10.0 mi Calm Calm - N/A   Scattered Clouds
1:52 PM 53.1 °F - 43.9 °F 71% 29.76 in 10.0 mi SSW 5.8 mph - N/A   Clear
2:13 PM 53.2 °F - 43.9 °F 71% 29.78 in 10.0 mi SSW 5.8 mph - N/A   Mostly Cloudy
2:32 PM 53.6 °F - 44.1 °F 70% 29.78 in 10.0 mi SSW 8.1 mph - N/A   Overcast
2:53 PM 53.8 °F - 43.9 °F 69% 29.78 in 10.0 mi SSW 6.9 mph - N/A   Mostly Cloudy
3:12 PM 53.2 °F - 43.2 °F 69% 29.79 in 10.0 mi SW 5.8 mph - N/A   Mostly Cloudy
3:32 PM 52.7 °F - 43.0 °F 70% 29.80 in 10.0 mi WSW 8.1 mph - N/A   Overcast
3:53 PM 52.3 °F - 42.3 °F 69% 29.80 in 10.0 mi WSW 8.1 mph - N/A   Overcast
4:12 PM 50.9 °F - 42.8 °F 74% 29.79 in 10.0 mi West 12.7 mph - N/A   Mostly Cloudy
4:33 PM 49.5 °F - 42.8 °F 78% 29.81 in 10.0 mi West 10.4 mph - N/A   Scattered Clouds
4:52 PM 48.6 °F - 42.3 °F 79% 29.81 in 10.0 mi West 9.2 mph - N/A   Mostly Cloudy
5:13 PM 47.8 °F - 42.4 °F 82% 29.82 in 10.0 mi West 6.9 mph - N/A   Overcast
5:33 PM 47.7 °F - 42.3 °F 82% 29.82 in 10.0 mi West 6.9 mph - N/A   Overcast
5:53 PM 47.7 °F - 42.1 °F 81% 29.82 in 10.0 mi WNW 4.6 mph - N/A   Overcast
6:12 PM 47.7 °F - 41.9 °F 80% 29.82 in 10.0 mi WNW 5.8 mph - N/A   Overcast
6:33 PM 47.5 °F - 41.9 °F 81% 29.82 in 10.0 mi WNW 5.8 mph - N/A   Overcast
6:52 PM 47.5 °F - 41.7 °F 80% 29.82 in 10.0 mi WNW 8.1 mph - N/A   Overcast
7:12 PM 47.7 °F - 40.8 °F 77% 29.82 in 10.0 mi West 8.1 mph - N/A   Overcast
7:33 PM 47.8 °F - 40.3 °F 75% 29.83 in 10.0 mi West 9.2 mph - N/A   Overcast
7:53 PM 47.7 °F - 40.1 °F 75% 29.83 in 10.0 mi WNW 12.7 mph 18.4 mph N/A   Overcast
8:12 PM 47.3 °F - 39.2 °F 73% 29.83 in 10.0 mi WNW 15.0 mph 20.7 mph N/A   Overcast
8:32 PM 46.8 °F - 39.2 °F 75% 29.83 in 10.0 mi WNW 13.8 mph 21.9 mph N/A   Overcast
8:53 PM 46.4 °F 40.1 °F 39.2 °F 76% 29.83 in 10.0 mi WNW 15.0 mph 18.4 mph N/A   Overcast
9:13 PM 45.7 °F 40.2 °F 39.4 °F 79% 29.85 in 10.0 mi West 11.5 mph - N/A   Overcast
9:33 PM 45.9 °F 38.8 °F 39.2 °F 78% 29.86 in 10.0 mi West 17.3 mph - N/A   Overcast
9:52 PM 45.5 °F 39.6 °F 38.7 °F 77% 29.86 in 10.0 mi WNW 12.7 mph 20.7 mph N/A   Overcast
10:13 PM 44.6 °F 36.9 °F 37.9 °F 77% 29.86 in 10.0 mi West 18.4 mph 24.2 mph N/A   Overcast
10:32 PM 43.0 °F 34.8 °F 37.4 °F 81% 29.86 in 10.0 mi WNW 18.4 mph 25.3 mph N/A   Overcast
10:52 PM 42.1 °F 34.5 °F 37.2 °F 83% 29.87 in 10.0 mi West 15.0 mph 23.0 mph N/A   Overcast
11:12 PM 41.5 °F 33.8 °F 37.6 °F 86% 29.87 in 10.0 mi West 15.0 mph 20.7 mph N/A   Light Drizzle
11:33 PM 41.2 °F 33.7 °F 37.8 °F 88% 29.88 in 10.0 mi West 13.8 mph - N/A   Light Drizzle
11:52 PM 41.4 °F 33.6 °F 37.4 °F 86% 29.89 in 10.0 mi West 15.0 mph - N/A   Overcast